Time,TemperatureF,DewpointF,PressureIn,WindDirection,WindDirectionDegrees,WindSpeedMPH,WindSpeedGustMPH,Humidity,HourlyPrecipIn,Conditions,Clouds,dailyrainin,SoftwareType,DateUTC
2013-05-09 00:01:00,57.1,56.5,30.07,SE,142,2.0,6.0,98,0.00,,---,0.00,VWS V14.01,2013-05-09 04:01:00,
2013-05-09 00:06:00,57.0,56.4,30.07,SE,137,2.0,4.0,98,0.00,,---,0.00,VWS V14.01,2013-05-09 04:06:00,
2013-05-09 00:11:00,56.9,56.3,30.07,SE,141,3.0,3.0,98,0.00,,---,0.00,VWS V14.01,2013-05-09 04:11:00,
2013-05-09 00:16:00,56.9,56.3,30.07,SSE,168,2.0,2.0,98,0.00,,---,0.00,VWS V14.01,2013-05-09 04:16:00,
2013-05-09 00:21:00,56.9,56.3,30.07,SSE,147,2.0,3.0,98,0.00,,---,0.00,VWS V14.01,2013-05-09 04:21:00,
2013-05-09 00:26:00,56.9,56.3,30.07,SE,133,1.0,3.0,98,0.00,,---,0.00,VWS V14.01,2013-05-09 04:26:00,
2013-05-09 00:31:00,56.9,56.3,30.07,SE,133,1.0,1.0,98,0.00,,---,0.00,VWS V14.01,2013-05-09 04:31:00,
2013-05-09 00:36:00,56.8,56.2,30.07,SSE,150,0.0,4.0,98,0.00,,---,0.00,VWS V14.01,2013-05-09 04:36:00,
2013-05-09 00:41:00,56.7,56.1,30.07,SSE,152,0.0,3.0,98,0.00,,---,0.00,VWS V14.01,2013-05-09 04:41:00,
2013-05-09 00:46:00,56.7,56.1,30.07,SSE,152,1.0,3.0,98,0.00,,---,0.00,VWS V14.01,2013-05-09 04:46:00,
2013-05-09 00:51:00,56.7,56.1,30.07,South,169,1.0,1.0,98,0.00,,---,0.00,VWS V14.01,2013-05-09 04:51:00,
2013-05-09 00:56:00,56.6,56.0,30.07,SSW,203,7.0,7.0,98,0.00,,---,0.00,VWS V14.01,2013-05-09 04:56:00,
2013-05-09 01:01:00,56.3,55.8,30.07,SSW,203,1.0,3.0,98,0.00,,---,0.00,VWS V14.01,2013-05-09 05:01:00,
2013-05-09 01:06:00,56.2,55.7,30.07,SSW,203,5.0,5.0,98,0.00,,---,0.00,VWS V14.01,2013-05-09 05:06:00,
2013-05-09 01:11:00,56.1,55.5,30.07,SSW,203,0.0,4.0,98,0.00,,---,0.00,VWS V14.01,2013-05-09 05:11:00,
2013-05-09 01:16:00,56.0,55.5,30.07,SSW,203,6.0,7.0,98,0.00,,---,0.00,VWS V14.01,2013-05-09 05:16:00,
2013-05-09 01:21:00,55.9,55.3,30.06,SSW,203,2.0,3.0,98,0.00,,---,0.00,VWS V14.01,2013-05-09 05:21:00,
2013-05-09 01:26:00,55.9,55.3,30.06,SSW,203,1.0,1.0,98,0.00,,---,0.00,VWS V14.01,2013-05-09 05:26:00,
2013-05-09 01:31:00,55.8,55.2,30.06,SSW,203,1.0,1.0,98,0.00,,---,0.00,VWS V14.01,2013-05-09 05:31:00,
2013-05-09 01:36:00,55.8,55.2,30.05,SSW,203,0.0,0.0,98,0.00,,---,0.00,VWS V14.01,2013-05-09 05:36:00,
2013-05-09 01:41:00,55.8,55.2,30.04,SSW,203,0.0,1.0,98,0.00,,---,0.00,VWS V14.01,2013-05-09 05:41:00,
2013-05-09 01:46:00,55.8,55.2,30.04,SSW,203,0.0,1.0,98,0.00,,---,0.00,VWS V14.01,2013-05-09 05:46:00,
2013-05-09 01:51:00,55.8,55.2,30.04,SSW,203,0.0,0.0,98,0.00,,---,0.00,VWS V14.01,2013-05-09 05:51:00,
2013-05-09 01:56:00,55.7,55.2,30.04,SSW,203,1.0,2.0,98,0.00,,---,0.00,VWS V14.01,2013-05-09 05:56:00,
2013-05-09 02:01:00,55.7,55.2,30.04,SSW,203,1.0,1.0,98,0.00,,---,0.00,VWS V14.01,2013-05-09 06:01:00,
2013-05-09 02:06:00,55.6,55.0,30.04,SSW,203,0.0,1.0,98,0.00,,---,0.00,VWS V14.01,2013-05-09 06:06:00,
2013-05-09 02:11:00,55.6,55.0,30.04,SSW,203,1.0,2.0,98,0.00,,---,0.00,VWS V14.01,2013-05-09 06:11:00,
2013-05-09 02:16:00,55.5,55.0,30.04,SSW,203,0.0,2.0,98,0.00,,---,0.00,VWS V14.01,2013-05-09 06:16:00,
2013-05-09 02:21:00,55.4,54.8,30.04,SSW,203,0.0,3.0,98,0.00,,---,0.00,VWS V14.01,2013-05-09 06:21:00,
2013-05-09 02:26:00,55.4,54.8,30.03,SSW,203,2.0,3.0,98,0.00,,---,0.00,VWS V14.01,2013-05-09 06:26:00,
2013-05-09 02:31:00,55.3,54.8,30.03,SSW,203,1.0,1.0,98,0.00,,---,0.00,VWS V14.01,2013-05-09 06:31:00,
2013-05-09 02:36:00,55.3,54.8,30.03,SSW,203,1.0,3.0,98,0.00,,---,0.00,VWS V14.01,2013-05-09 06:36:00,
2013-05-09 02:41:00,55.2,54.7,30.03,SSW,203,0.0,0.0,98,0.00,,---,0.00,VWS V14.01,2013-05-09 06:41:00,
2013-05-09 02:46:00,55.2,54.7,30.04,SSW,203,0.0,1.0,98,0.00,,---,0.00,VWS V14.01,2013-05-09 06:46:00,
2013-05-09 02:51:00,55.2,54.7,30.03,SSW,203,0.0,2.0,98,0.00,,---,0.00,VWS V14.01,2013-05-09 06:51:00,
2013-05-09 02:56:00,55.2,54.7,30.03,SSW,203,0.0,1.0,98,0.00,,---,0.00,VWS V14.01,2013-05-09 06:56:00,
2013-05-09 03:01:00,55.2,54.7,30.02,SSW,203,0.0,1.0,98,0.00,,---,0.00,VWS V14.01,2013-05-09 07:01:00,
2013-05-09 03:06:00,55.3,54.8,30.02,SSW,203,0.0,0.0,98,0.00,,---,0.00,VWS V14.01,2013-05-09 07:06:00,
2013-05-09 03:11:00,55.3,54.8,30.02,SSW,203,1.0,1.0,98,0.00,,---,0.00,VWS V14.01,2013-05-09 07:11:00,
2013-05-09 03:16:00,55.3,54.8,30.01,SSW,203,0.0,0.0,98,0.00,,---,0.00,VWS V14.01,2013-05-09 07:16:00,
2013-05-09 03:21:00,55.3,54.8,30.01,SSW,203,0.0,0.0,98,0.00,,---,0.00,VWS V14.01,2013-05-09 07:21:00,
2013-05-09 03:26:00,55.3,54.8,30.01,SSW,203,0.0,0.0,98,0.00,,---,0.00,VWS V14.01,2013-05-09 07:26:00,
2013-05-09 03:31:00,55.3,54.8,30.01,SSW,203,0.0,0.0,98,0.00,,---,0.00,VWS V14.01,2013-05-09 07:31:00,
2013-05-09 03:36:00,55.3,54.8,30.02,SSW,203,0.0,0.0,98,0.00,,---,0.00,VWS V14.01,2013-05-09 07:36:00,
2013-05-09 03:41:00,55.3,55.0,30.01,SSW,203,0.0,0.0,99,0.00,,---,0.00,VWS V14.01,2013-05-09 07:41:00,
2013-05-09 03:46:00,55.3,55.0,30.01,SSW,203,0.0,0.0,99,0.00,,---,0.00,VWS V14.01,2013-05-09 07:46:00,
2013-05-09 03:51:00,55.4,55.1,30.02,SSW,203,0.0,1.0,99,0.00,,---,0.00,VWS V14.01,2013-05-09 07:51:00,
2013-05-09 03:56:00,55.5,55.2,30.02,SSW,203,0.0,0.0,99,0.00,,---,0.00,VWS V14.01,2013-05-09 07:56:00,
2013-05-09 04:01:00,55.5,55.2,30.01,SSW,203,0.0,0.0,99,0.00,,---,0.00,VWS V14.01,2013-05-09 08:01:00,
2013-05-09 04:06:00,55.5,55.2,30.02,SSW,203,0.0,0.0,99,0.00,,---,0.00,VWS V14.01,2013-05-09 08:06:00,
2013-05-09 04:11:00,55.5,55.2,30.01,SSW,203,0.0,0.0,99,0.00,,---,0.00,VWS V14.01,2013-05-09 08:11:00,
2013-05-09 04:16:00,55.5,55.2,30.01,SSW,203,0.0,0.0,99,0.00,,---,0.00,VWS V14.01,2013-05-09 08:16:00,
2013-05-09 04:21:00,55.5,55.2,30.01,SSW,203,0.0,0.0,99,0.00,,---,0.00,VWS V14.01,2013-05-09 08:21:00,
2013-05-09 04:26:00,55.5,55.2,30.01,SSW,203,0.0,0.0,99,0.00,,---,0.00,VWS V14.01,2013-05-09 08:26:00,
2013-05-09 04:31:00,55.5,55.2,30.01,SSW,203,0.0,0.0,99,0.00,,---,0.00,VWS V14.01,2013-05-09 08:31:00,
2013-05-09 04:36:00,55.5,55.2,30.01,SSW,203,0.0,0.0,99,0.00,,---,0.00,VWS V14.01,2013-05-09 08:36:00,
2013-05-09 04:41:00,55.5,55.2,30.01,SSW,203,1.0,1.0,99,0.00,,---,0.00,VWS V14.01,2013-05-09 08:41:00,
2013-05-09 04:46:00,55.6,55.3,30.01,SSW,203,0.0,1.0,99,0.00,,---,0.00,VWS V14.01,2013-05-09 08:46:00,
2013-05-09 04:50:00,55.6,55.3,30.01,SSW,203,0.0,0.0,99,0.00,,---,0.00,VWS V14.01,2013-05-09 08:50:00,
2013-05-09 04:55:00,55.6,55.3,30.01,SSW,203,0.0,0.0,99,0.00,,---,0.00,VWS V14.01,2013-05-09 08:55:00,
2013-05-09 05:00:00,55.5,55.2,30.01,SSW,203,0.0,0.0,99,0.00,,---,0.00,VWS V14.01,2013-05-09 09:00:00,
2013-05-09 05:05:00,55.5,55.2,30.00,SSW,203,0.0,0.0,99,0.00,,---,0.00,VWS V14.01,2013-05-09 09:05:00,
2013-05-09 05:10:00,55.5,55.2,30.00,SSW,203,0.0,0.0,99,0.00,,---,0.00,VWS V14.01,2013-05-09 09:10:00,
2013-05-09 05:15:00,55.5,55.2,30.01,SSW,203,0.0,0.0,99,0.00,,---,0.00,VWS V14.01,2013-05-09 09:15:00,
2013-05-09 05:20:00,55.6,55.3,30.01,SSW,203,0.0,0.0,99,0.00,,---,0.00,VWS V14.01,2013-05-09 09:20:00,
2013-05-09 05:25:00,55.6,55.3,30.01,SSW,203,0.0,0.0,99,0.00,,---,0.00,VWS V14.01,2013-05-09 09:25:00,
2013-05-09 05:30:00,55.6,55.3,30.01,SSW,203,0.0,0.0,99,0.00,,---,0.00,VWS V14.01,2013-05-09 09:30:00,
2013-05-09 05:35:00,55.6,55.3,30.01,SSW,203,0.0,0.0,99,0.00,,---,0.00,VWS V14.01,2013-05-09 09:35:00,
2013-05-09 05:40:00,55.7,55.4,30.01,SSW,203,0.0,0.0,99,0.00,,---,0.00,VWS V14.01,2013-05-09 09:40:00,
2013-05-09 05:45:00,55.6,55.3,30.00,SSW,203,0.0,0.0,99,0.00,,---,0.00,VWS V14.01,2013-05-09 09:45:00,
2013-05-09 05:50:00,55.7,55.4,30.00,SSW,203,0.0,0.0,99,0.01,,---,0.01,VWS V14.01,2013-05-09 09:50:00,
2013-05-09 05:55:00,55.7,55.4,30.00,SSW,203,0.0,0.0,99,0.01,,---,0.01,VWS V14.01,2013-05-09 09:55:00,
2013-05-09 06:00:00,55.7,55.4,30.00,SSW,203,0.0,0.0,99,0.01,,---,0.01,VWS V14.01,2013-05-09 10:00:00,
2013-05-09 06:05:00,55.8,55.5,30.00,SSW,203,0.0,0.0,99,0.01,,---,0.01,VWS V14.01,2013-05-09 10:05:00,
2013-05-09 06:10:00,55.8,55.5,30.00,SSW,203,0.0,0.0,99,0.01,,---,0.01,VWS V14.01,2013-05-09 10:10:00,
2013-05-09 06:15:00,55.9,55.6,30.00,SSW,203,0.0,0.0,99,0.01,,---,0.01,VWS V14.01,2013-05-09 10:15:00,
2013-05-09 06:20:00,55.9,55.6,30.00,SSW,203,0.0,0.0,99,0.01,,---,0.01,VWS V14.01,2013-05-09 10:20:00,
2013-05-09 06:25:00,56.0,55.7,30.00,SSW,203,0.0,0.0,99,0.01,,---,0.01,VWS V14.01,2013-05-09 10:25:00,
2013-05-09 06:30:00,56.1,55.8,30.00,SSW,203,0.0,0.0,99,0.01,,---,0.01,VWS V14.01,2013-05-09 10:30:00,
2013-05-09 06:35:00,56.2,55.9,30.00,SSW,203,0.0,0.0,99,0.01,,---,0.01,VWS V14.01,2013-05-09 10:35:00,
2013-05-09 06:40:00,56.3,56.0,30.00,SSW,203,0.0,0.0,99,0.01,,---,0.01,VWS V14.01,2013-05-09 10:40:00,
2013-05-09 06:45:00,56.5,56.2,30.00,SSW,203,0.0,0.0,99,0.01,,---,0.01,VWS V14.01,2013-05-09 10:45:00,
2013-05-09 06:50:00,56.8,56.5,30.00,SSW,203,0.0,0.0,99,0.01,,---,0.01,VWS V14.01,2013-05-09 10:50:00,
2013-05-09 06:55:00,57.1,56.8,30.00,SSW,203,1.0,1.0,99,0.00,,---,0.01,VWS V14.01,2013-05-09 10:55:00,
2013-05-09 07:00:00,57.1,56.8,30.00,SSW,203,0.0,2.0,99,0.00,,---,0.01,VWS V14.01,2013-05-09 11:00:00,
2013-05-09 07:05:00,57.1,56.8,30.00,SSW,203,1.0,1.0,99,0.00,,---,0.01,VWS V14.01,2013-05-09 11:05:00,
2013-05-09 07:10:00,57.0,56.7,30.01,South,180,2.0,2.0,99,0.00,,---,0.01,VWS V14.01,2013-05-09 11:10:00,
2013-05-09 07:15:00,57.0,56.7,30.01,South,178,1.0,1.0,99,0.00,,---,0.01,VWS V14.01,2013-05-09 11:15:00,
2013-05-09 07:20:00,56.9,56.6,30.01,South,178,0.0,0.0,99,0.00,,---,0.01,VWS V14.01,2013-05-09 11:20:00,
2013-05-09 07:25:00,57.0,56.7,30.01,South,179,1.0,2.0,99,0.00,,---,0.01,VWS V14.01,2013-05-09 11:25:00,
2013-05-09 07:30:00,57.0,56.7,30.01,South,177,1.0,2.0,99,0.00,,---,0.01,VWS V14.01,2013-05-09 11:30:00,
2013-05-09 07:35:00,57.1,56.8,30.01,South,177,3.0,3.0,99,0.00,,---,0.01,VWS V14.01,2013-05-09 11:35:00,
2013-05-09 07:40:00,57.1,56.8,30.01,South,178,1.0,1.0,99,0.00,,---,0.01,VWS V14.01,2013-05-09 11:40:00,
2013-05-09 07:45:00,57.2,56.9,30.02,South,179,0.0,0.0,99,0.00,,---,0.01,VWS V14.01,2013-05-09 11:45:00,
2013-05-09 07:50:00,57.3,57.0,30.02,South,177,0.0,0.0,99,0.00,,---,0.01,VWS V14.01,2013-05-09 11:50:00,
2013-05-09 07:55:00,57.3,57.0,30.02,South,179,0.0,0.0,99,0.00,,---,0.01,VWS V14.01,2013-05-09 11:55:00,
2013-05-09 08:00:00,57.3,57.0,30.02,South,178,1.0,1.0,99,0.00,,---,0.01,VWS V14.01,2013-05-09 12:00:00,
2013-05-09 08:05:00,57.3,57.0,30.02,South,178,1.0,1.0,99,0.00,,---,0.01,VWS V14.01,2013-05-09 12:05:00,
2013-05-09 08:10:00,57.5,57.2,30.01,South,177,0.0,1.0,99,0.00,,---,0.01,VWS V14.01,2013-05-09 12:10:00,
2013-05-09 08:15:00,57.8,57.5,30.02,South,177,2.0,3.0,99,0.00,,---,0.01,VWS V14.01,2013-05-09 12:15:00,
2013-05-09 08:20:00,58.0,57.7,30.02,South,178,0.0,0.0,99,0.00,,---,0.01,VWS V14.01,2013-05-09 12:20:00,
2013-05-09 08:25:00,58.0,57.7,30.02,South,178,0.0,1.0,99,0.00,,---,0.01,VWS V14.01,2013-05-09 12:25:00,
2013-05-09 08:30:00,58.0,57.7,30.02,South,179,0.0,1.0,99,0.00,,---,0.01,VWS V14.01,2013-05-09 12:30:00,
2013-05-09 08:35:00,58.1,57.8,30.02,South,177,2.0,3.0,99,0.00,,---,0.01,VWS V14.01,2013-05-09 12:35:00,
2013-05-09 08:40:00,58.3,58.0,30.02,South,178,0.0,0.0,99,0.00,,---,0.01,VWS V14.01,2013-05-09 12:40:00,
2013-05-09 08:45:00,58.2,57.9,30.02,South,177,0.0,1.0,99,0.00,,---,0.01,VWS V14.01,2013-05-09 12:45:00,
2013-05-09 08:50:00,58.2,57.9,30.02,South,177,0.0,0.0,99,0.00,,---,0.01,VWS V14.01,2013-05-09 12:50:00,
2013-05-09 08:55:00,58.0,57.7,30.02,South,178,1.0,1.0,99,0.00,,---,0.01,VWS V14.01,2013-05-09 12:55:00,
2013-05-09 09:00:00,57.9,57.6,30.02,South,178,0.0,0.0,99,0.00,,---,0.01,VWS V14.01,2013-05-09 13:00:00,
2013-05-09 09:05:00,58.2,57.9,30.01,South,178,0.0,0.0,99,0.00,,---,0.01,VWS V14.01,2013-05-09 13:05:00,
2013-05-09 09:10:00,58.6,58.3,30.01,South,177,0.0,0.0,99,0.00,,---,0.01,VWS V14.01,2013-05-09 13:10:00,
2013-05-09 09:15:00,58.9,58.6,30.01,South,177,0.0,2.0,99,0.00,,---,0.01,VWS V14.01,2013-05-09 13:15:00,
2013-05-09 09:20:00,58.5,58.2,30.00,SSE,154,2.0,2.0,99,0.00,,---,0.01,VWS V14.01,2013-05-09 13:20:00,
2013-05-09 09:25:00,58.2,57.9,30.00,SE,146,1.0,1.0,99,0.00,,---,0.01,VWS V14.01,2013-05-09 13:25:00,
2013-05-09 09:30:00,58.2,57.9,30.00,SE,146,3.0,3.0,99,0.00,,---,0.01,VWS V14.01,2013-05-09 13:30:00,
2013-05-09 09:35:00,58.1,57.8,30.00,SE,146,3.0,3.0,99,0.00,,---,0.01,VWS V14.01,2013-05-09 13:35:00,
2013-05-09 09:40:00,58.4,58.1,30.00,SE,146,2.0,3.0,99,0.00,,---,0.01,VWS V14.01,2013-05-09 13:40:00,
2013-05-09 09:45:00,58.9,58.6,30.00,SE,145,0.0,0.0,99,0.00,,---,0.01,VWS V14.01,2013-05-09 13:45:00,
2013-05-09 09:50:00,59.5,59.2,30.00,SE,146,4.0,4.0,99,0.00,,---,0.01,VWS V14.01,2013-05-09 13:50:00,
2013-05-09 09:55:00,58.9,58.6,30.00,SE,139,3.0,4.0,99,0.00,,---,0.01,VWS V14.01,2013-05-09 13:55:00,
2013-05-09 10:00:00,58.8,58.5,30.00,SE,139,0.0,2.0,99,0.00,,---,0.01,VWS V14.01,2013-05-09 14:00:00,
2013-05-09 10:05:00,58.9,58.6,30.01,SE,139,2.0,4.0,99,0.00,,---,0.01,VWS V14.01,2013-05-09 14:05:00,
2013-05-09 10:10:00,58.8,58.5,30.01,SE,138,0.0,0.0,99,0.00,,---,0.01,VWS V14.01,2013-05-09 14:10:00,
2013-05-09 10:15:00,58.9,58.6,30.01,SE,139,0.0,0.0,99,0.00,,---,0.01,VWS V14.01,2013-05-09 14:15:00,
2013-05-09 10:20:00,59.0,58.7,30.01,SE,138,0.0,1.0,99,0.00,,---,0.01,VWS V14.01,2013-05-09 14:20:00,
2013-05-09 10:25:00,59.1,58.8,30.01,SE,138,1.0,3.0,99,0.00,,---,0.01,VWS V14.01,2013-05-09 14:25:00,
2013-05-09 10:30:00,59.2,58.9,30.01,SE,139,1.0,3.0,99,0.00,,---,0.01,VWS V14.01,2013-05-09 14:30:00,
2013-05-09 10:35:00,59.1,58.5,30.00,SE,139,0.0,0.0,98,0.00,,---,0.01,VWS V14.01,2013-05-09 14:35:00,
2013-05-09 10:40:00,59.2,58.9,30.00,SE,138,3.0,4.0,99,0.00,,---,0.01,VWS V14.01,2013-05-09 14:40:00,
2013-05-09 10:45:00,59.2,58.6,30.00,SE,134,3.0,5.0,98,0.00,,---,0.01,VWS V14.01,2013-05-09 14:45:00,
2013-05-09 10:50:00,59.2,58.6,30.00,SE,131,4.0,6.0,98,0.00,,---,0.01,VWS V14.01,2013-05-09 14:50:00,
2013-05-09 10:55:00,59.1,58.5,30.00,SE,125,6.0,6.0,98,0.00,,---,0.01,VWS V14.01,2013-05-09 14:55:00,
2013-05-09 11:00:00,59.2,58.3,30.00,ESE,102,1.0,2.0,97,0.00,,---,0.01,VWS V14.01,2013-05-09 15:00:00,
2013-05-09 11:05:00,59.3,58.5,30.00,ESE,102,2.0,3.0,97,0.00,,---,0.01,VWS V14.01,2013-05-09 15:05:00,
2013-05-09 11:10:00,59.5,58.7,30.00,ESE,102,2.0,3.0,97,0.00,,---,0.01,VWS V14.01,2013-05-09 15:10:00,
2013-05-09 11:15:00,59.7,58.8,30.00,ESE,102,0.0,1.0,97,0.00,,---,0.01,VWS V14.01,2013-05-09 15:15:00,
2013-05-09 11:20:00,60.3,59.5,30.00,ESE,102,1.0,2.0,97,0.00,,---,0.01,VWS V14.01,2013-05-09 15:20:00,
2013-05-09 11:25:00,60.7,59.8,30.00,ESE,102,0.0,0.0,97,0.00,,---,0.01,VWS V14.01,2013-05-09 15:25:00,
2013-05-09 11:30:00,60.7,59.3,30.00,ESE,102,1.0,2.0,95,0.00,,---,0.01,VWS V14.01,2013-05-09 15:30:00,
2013-05-09 11:35:00,60.5,59.1,30.00,ESE,102,0.0,2.0,95,0.00,,---,0.01,VWS V14.01,2013-05-09 15:35:00,
2013-05-09 11:40:00,60.5,59.1,30.00,ESE,102,3.0,4.0,95,0.00,,---,0.01,VWS V14.01,2013-05-09 15:40:00,
2013-05-09 11:45:00,60.5,59.1,30.00,SSE,164,1.0,3.0,95,0.00,,---,0.01,VWS V14.01,2013-05-09 15:45:00,
2013-05-09 11:50:00,60.4,59.0,30.00,SSE,164,1.0,1.0,95,0.00,,---,0.01,VWS V14.01,2013-05-09 15:50:00,
2013-05-09 11:55:00,60.1,58.7,30.00,SSE,164,0.0,3.0,95,0.00,,---,0.01,VWS V14.01,2013-05-09 15:55:00,
2013-05-09 12:00:00,59.8,58.4,30.00,SSE,166,3.0,4.0,95,0.00,,---,0.01,VWS V14.01,2013-05-09 16:00:00,
2013-05-09 12:05:00,59.8,58.7,30.00,SSE,166,0.0,2.0,96,0.00,,---,0.01,VWS V14.01,2013-05-09 16:05:00,
2013-05-09 12:10:00,59.8,58.7,30.00,SSE,166,3.0,3.0,96,0.00,,---,0.01,VWS V14.01,2013-05-09 16:10:00,
2013-05-09 12:15:00,59.6,58.5,30.00,SSE,167,0.0,1.0,96,0.00,,---,0.01,VWS V14.01,2013-05-09 16:15:00,
2013-05-09 12:20:00,59.3,58.2,30.00,SSE,167,1.0,2.0,96,0.00,,---,0.01,VWS V14.01,2013-05-09 16:20:00,
2013-05-09 12:25:00,59.3,58.5,30.00,SSE,167,1.0,4.0,97,0.00,,---,0.01,VWS V14.01,2013-05-09 16:25:00,
2013-05-09 12:30:00,59.2,58.1,30.01,SSE,167,1.0,2.0,96,0.00,,---,0.01,VWS V14.01,2013-05-09 16:30:00,
2013-05-09 12:35:00,58.9,57.8,30.01,SW,234,13.0,13.0,96,0.03,,---,0.04,VWS V14.01,2013-05-09 16:35:00,
2013-05-09 12:40:00,58.6,57.8,29.99,WSW,245,0.0,1.0,97,0.12,,---,0.13,VWS V14.01,2013-05-09 16:40:00,
2013-05-09 12:45:00,58.8,58.0,29.98,ESE,106,4.0,5.0,97,0.20,,---,0.21,VWS V14.01,2013-05-09 16:45:00,
2013-05-09 12:50:00,59.1,58.5,29.98,ESE,112,4.0,5.0,98,0.21,,---,0.22,VWS V14.01,2013-05-09 16:50:00,
2013-05-09 12:55:00,59.6,59.0,29.98,ESE,112,2.0,3.0,98,0.21,,---,0.22,VWS V14.01,2013-05-09 16:55:00,
2013-05-09 13:00:00,60.0,59.4,29.98,ESE,112,2.0,2.0,98,0.21,,---,0.22,VWS V14.01,2013-05-09 17:00:00,
2013-05-09 13:05:00,60.4,59.8,29.98,ESE,111,0.0,2.0,98,0.21,,---,0.22,VWS V14.01,2013-05-09 17:05:00,
2013-05-09 13:10:00,60.7,60.1,29.98,ESE,113,1.0,4.0,98,0.21,,---,0.22,VWS V14.01,2013-05-09 17:10:00,
2013-05-09 13:15:00,61.1,60.5,29.98,ESE,112,0.0,3.0,98,0.21,,---,0.22,VWS V14.01,2013-05-09 17:15:00,
2013-05-09 13:20:00,61.3,60.7,29.98,SE,139,3.0,5.0,98,0.21,,---,0.22,VWS V14.01,2013-05-09 17:20:00,
2013-05-09 13:25:00,61.4,60.8,29.98,ESE,120,0.0,3.0,98,0.21,,---,0.22,VWS V14.01,2013-05-09 17:25:00,
2013-05-09 13:30:00,61.7,61.1,29.98,ESE,120,3.0,3.0,98,0.21,,---,0.22,VWS V14.01,2013-05-09 17:30:00,
2013-05-09 13:35:00,61.6,60.7,29.98,SE,136,1.0,1.0,97,0.19,,---,0.22,VWS V14.01,2013-05-09 17:35:00,
2013-05-09 13:40:00,62.5,61.9,29.97,SE,136,3.0,3.0,98,0.09,,---,0.22,VWS V14.01,2013-05-09 17:40:00,
2013-05-09 13:45:00,63.0,61.8,29.98,SE,143,2.0,4.0,96,0.02,,---,0.22,VWS V14.01,2013-05-09 17:45:00,
2013-05-09 13:50:00,63.2,61.5,29.98,SSE,165,2.0,6.0,94,0.00,,---,0.22,VWS V14.01,2013-05-09 17:50:00,
2013-05-09 13:55:00,63.4,61.0,29.98,SE,141,0.0,3.0,92,0.00,,---,0.22,VWS V14.01,2013-05-09 17:55:00,
2013-05-09 14:00:00,63.9,61.8,29.98,SSE,157,1.0,2.0,93,0.00,,---,0.22,VWS V14.01,2013-05-09 18:00:00,
2013-05-09 14:05:00,63.9,61.5,29.98,South,174,2.0,4.0,92,0.00,,---,0.22,VWS V14.01,2013-05-09 18:05:00,
2013-05-09 14:10:00,63.4,61.0,29.98,South,175,2.0,3.0,92,0.00,,---,0.22,VWS V14.01,2013-05-09 18:10:00,
2013-05-09 14:15:00,63.0,61.0,29.98,SSE,166,2.0,3.0,93,0.00,,---,0.22,VWS V14.01,2013-05-09 18:15:00,
2013-05-09 14:20:00,62.9,60.8,29.98,SSE,167,0.0,3.0,93,0.00,,---,0.22,VWS V14.01,2013-05-09 18:20:00,
2013-05-09 14:25:00,63.0,61.0,29.97,SSE,168,2.0,2.0,93,0.00,,---,0.22,VWS V14.01,2013-05-09 18:25:00,
2013-05-09 14:30:00,63.0,61.0,29.98,SSE,149,4.0,5.0,93,0.00,,---,0.22,VWS V14.01,2013-05-09 18:30:00,
2013-05-09 14:35:00,62.5,60.2,29.98,SSE,160,1.0,5.0,92,0.00,,---,0.22,VWS V14.01,2013-05-09 18:35:00,
2013-05-09 14:40:00,61.8,59.8,29.97,SSE,150,1.0,4.0,93,0.00,,---,0.22,VWS V14.01,2013-05-09 18:40:00,
2013-05-09 14:45:00,61.5,59.8,29.97,SSE,149,0.0,3.0,94,0.00,,---,0.22,VWS V14.01,2013-05-09 18:45:00,
2013-05-09 14:50:00,61.5,60.1,29.96,SE,134,1.0,2.0,95,0.00,,---,0.22,VWS V14.01,2013-05-09 18:50:00,
2013-05-09 14:55:00,61.5,60.1,29.96,SE,134,2.0,4.0,95,0.00,,---,0.22,VWS V14.01,2013-05-09 18:55:00,
2013-05-09 15:00:00,61.6,60.2,29.97,SE,134,2.0,2.0,95,0.00,,---,0.22,VWS V14.01,2013-05-09 19:00:00,
2013-05-09 15:05:00,61.6,60.2,29.97,SSE,156,1.0,1.0,95,0.00,,---,0.22,VWS V14.01,2013-05-09 19:05:00,
2013-05-09 15:10:00,61.8,60.4,29.96,SSE,158,1.0,4.0,95,0.00,,---,0.22,VWS V14.01,2013-05-09 19:10:00,
2013-05-09 15:15:00,61.9,60.2,29.95,SE,131,4.0,4.0,94,0.00,,---,0.22,VWS V14.01,2013-05-09 19:15:00,
2013-05-09 15:20:00,62.1,60.1,29.95,SE,129,2.0,5.0,93,0.00,,---,0.22,VWS V14.01,2013-05-09 19:20:00,
2013-05-09 15:25:00,62.1,59.8,29.94,ESE,104,0.0,2.0,92,0.00,,---,0.22,VWS V14.01,2013-05-09 19:25:00,
2013-05-09 15:30:00,62.2,59.5,29.94,ESE,104,4.0,6.0,91,0.00,,---,0.22,VWS V14.01,2013-05-09 19:30:00,
2013-05-09 15:35:00,61.4,58.8,29.94,ESE,110,0.0,2.0,91,0.00,,---,0.22,VWS V14.01,2013-05-09 19:35:00,
2013-05-09 15:40:00,60.9,58.6,29.94,ESE,110,2.0,3.0,92,0.00,,---,0.22,VWS V14.01,2013-05-09 19:40:00,
2013-05-09 15:45:00,60.4,58.4,29.93,ESE,110,3.0,3.0,93,0.00,,---,0.22,VWS V14.01,2013-05-09 19:45:00,
2013-05-09 15:50:00,60.0,58.3,29.93,ESE,108,2.0,3.0,94,0.00,,---,0.22,VWS V14.01,2013-05-09 19:50:00,
2013-05-09 15:55:00,59.8,58.4,29.93,ESE,108,1.0,4.0,95,0.00,,---,0.22,VWS V14.01,2013-05-09 19:55:00,
2013-05-09 16:00:00,59.7,58.3,29.93,ESE,108,1.0,4.0,95,0.00,,---,0.22,VWS V14.01,2013-05-09 20:00:00,
2013-05-09 16:05:00,59.6,58.5,29.94,ESE,108,1.0,2.0,96,0.01,,---,0.23,VWS V14.01,2013-05-09 20:05:00,
2013-05-09 16:10:00,59.7,58.6,29.95,SW,218,3.0,3.0,96,0.10,,---,0.32,VWS V14.01,2013-05-09 20:10:00,
2013-05-09 16:15:00,59.8,58.7,29.95,SW,216,0.0,2.0,96,0.23,,---,0.45,VWS V14.01,2013-05-09 20:15:00,
2013-05-09 16:20:00,59.8,59.0,29.94,SW,216,0.0,0.0,97,0.24,,---,0.46,VWS V14.01,2013-05-09 20:20:00,
2013-05-09 16:25:00,59.8,59.0,29.94,SW,216,0.0,0.0,97,0.25,,---,0.47,VWS V14.01,2013-05-09 20:25:00,
2013-05-09 16:30:00,59.9,59.0,29.93,SW,216,0.0,0.0,97,0.25,,---,0.47,VWS V14.01,2013-05-09 20:30:00,
2013-05-09 16:35:00,60.2,59.6,29.93,SW,216,0.0,0.0,98,0.25,,---,0.47,VWS V14.01,2013-05-09 20:35:00,
2013-05-09 16:40:00,60.8,60.2,29.93,SW,216,0.0,0.0,98,0.25,,---,0.47,VWS V14.01,2013-05-09 20:40:00,
2013-05-09 16:45:00,61.2,60.6,29.93,East,94,0.0,1.0,98,0.25,,---,0.47,VWS V14.01,2013-05-09 20:45:00,
2013-05-09 16:50:00,61.2,60.3,29.93,East,97,2.0,4.0,97,0.25,,---,0.47,VWS V14.01,2013-05-09 20:50:00,
2013-05-09 16:55:00,60.9,60.0,29.92,East,97,2.0,2.0,97,0.25,,---,0.47,VWS V14.01,2013-05-09 20:55:00,
2013-05-09 17:00:00,60.7,59.6,29.93,East,87,5.0,5.0,96,0.25,,---,0.47,VWS V14.01,2013-05-09 21:00:00,
2013-05-09 17:05:00,60.8,60.0,29.92,East,80,3.0,4.0,97,0.24,,---,0.47,VWS V14.01,2013-05-09 21:05:00,
2013-05-09 17:10:00,60.9,59.8,29.92,East,91,1.0,1.0,96,0.16,,---,0.47,VWS V14.01,2013-05-09 21:10:00,
2013-05-09 17:15:00,60.8,59.7,29.92,East,93,2.0,4.0,96,0.02,,---,0.47,VWS V14.01,2013-05-09 21:15:00,
2013-05-09 17:20:00,60.6,59.5,29.92,ESE,102,5.0,6.0,96,0.02,,---,0.48,VWS V14.01,2013-05-09 21:20:00,
2013-05-09 17:25:00,60.4,59.3,29.92,ESE,103,6.0,6.0,96,0.01,,---,0.48,VWS V14.01,2013-05-09 21:25:00,
2013-05-09 17:30:00,59.9,58.5,29.92,East,100,2.0,4.0,95,0.01,,---,0.48,VWS V14.01,2013-05-09 21:30:00,
2013-05-09 17:35:00,59.6,58.2,29.92,ESE,118,7.0,10.0,95,0.01,,---,0.48,VWS V14.01,2013-05-09 21:35:00,
2013-05-09 17:40:00,59.4,58.0,29.92,SE,131,2.0,3.0,95,0.01,,---,0.48,VWS V14.01,2013-05-09 21:40:00,
2013-05-09 17:45:00,59.4,58.3,29.92,ESE,109,4.0,4.0,96,0.01,,---,0.48,VWS V14.01,2013-05-09 21:45:00,
2013-05-09 17:50:00,59.5,58.4,29.91,SE,125,4.0,4.0,96,0.01,,---,0.48,VWS V14.01,2013-05-09 21:50:00,
2013-05-09 17:55:00,59.4,58.0,29.91,SE,131,2.0,3.0,95,0.01,,---,0.48,VWS V14.01,2013-05-09 21:55:00,
2013-05-09 18:00:00,59.5,58.1,29.91,ESE,115,4.0,4.0,95,0.01,,---,0.48,VWS V14.01,2013-05-09 22:00:00,
2013-05-09 18:05:00,59.3,57.6,29.91,ESE,118,0.0,5.0,94,0.01,,---,0.48,VWS V14.01,2013-05-09 22:05:00,
2013-05-09 18:10:00,59.2,57.8,29.91,ESE,122,1.0,1.0,95,0.01,,---,0.48,VWS V14.01,2013-05-09 22:10:00,
2013-05-09 18:15:00,59.2,57.8,29.91,SE,146,0.0,0.0,95,0.01,,---,0.48,VWS V14.01,2013-05-09 22:15:00,
2013-05-09 18:20:00,59.2,58.1,29.91,SE,146,0.0,2.0,96,0.00,,---,0.48,VWS V14.01,2013-05-09 22:20:00,
2013-05-09 18:25:00,59.1,58.0,29.91,South,169,0.0,2.0,96,0.00,,---,0.48,VWS V14.01,2013-05-09 22:25:00,
2013-05-09 18:30:00,59.2,58.1,29.91,South,172,5.0,5.0,96,0.00,,---,0.48,VWS V14.01,2013-05-09 22:30:00,
2013-05-09 18:35:00,59.0,57.9,29.91,South,172,1.0,5.0,96,0.00,,---,0.48,VWS V14.01,2013-05-09 22:35:00,
2013-05-09 18:40:00,58.8,57.4,29.91,SSE,162,0.0,2.0,95,0.00,,---,0.48,VWS V14.01,2013-05-09 22:40:00,
2013-05-09 18:45:00,58.5,57.1,29.92,SSE,168,1.0,1.0,95,0.00,,---,0.48,VWS V14.01,2013-05-09 22:45:00,
2013-05-09 18:50:00,58.1,56.7,29.92,SSE,166,2.0,2.0,95,0.00,,---,0.48,VWS V14.01,2013-05-09 22:50:00,
2013-05-09 18:55:00,57.8,56.4,29.92,South,177,2.0,3.0,95,0.00,,---,0.48,VWS V14.01,2013-05-09 22:55:00,
2013-05-09 19:00:00,57.4,56.0,29.92,SSW,207,10.0,10.0,95,0.00,,---,0.48,VWS V14.01,2013-05-09 23:00:00,
2013-05-09 19:05:00,56.8,55.4,29.92,South,177,4.0,7.0,95,0.00,,---,0.48,VWS V14.01,2013-05-09 23:05:00,
2013-05-09 19:10:00,56.3,54.9,29.92,South,181,3.0,3.0,95,0.00,,---,0.48,VWS V14.01,2013-05-09 23:10:00,
2013-05-09 19:15:00,55.8,54.7,29.92,SSW,204,6.0,6.0,96,0.00,,---,0.48,VWS V14.01,2013-05-09 23:15:00,
2013-05-09 19:20:00,55.3,54.2,29.92,South,180,3.0,3.0,96,0.00,,---,0.48,VWS V14.01,2013-05-09 23:20:00,
2013-05-09 19:25:00,55.1,54.3,29.92,South,191,4.0,4.0,97,0.00,,---,0.48,VWS V14.01,2013-05-09 23:25:00,
2013-05-09 19:30:00,54.7,53.9,29.92,South,180,3.0,3.0,97,0.00,,---,0.48,VWS V14.01,2013-05-09 23:30:00,
2013-05-09 19:35:00,54.5,53.7,29.93,SSW,195,5.0,5.0,97,0.00,,---,0.48,VWS V14.01,2013-05-09 23:35:00,
2013-05-09 19:40:00,54.3,53.5,29.93,South,181,1.0,3.0,97,0.00,,---,0.48,VWS V14.01,2013-05-09 23:40:00,
2013-05-09 19:45:00,54.2,53.4,29.93,SSW,202,4.0,5.0,97,0.00,,---,0.48,VWS V14.01,2013-05-09 23:45:00,
2013-05-09 19:50:00,54.1,53.5,29.93,South,189,3.0,4.0,98,0.00,,---,0.48,VWS V14.01,2013-05-09 23:50:00,
2013-05-09 19:55:00,53.8,53.0,29.93,South,171,2.0,5.0,97,0.00,,---,0.48,VWS V14.01,2013-05-09 23:55:00,
2013-05-09 20:00:00,53.6,53.0,29.93,SSW,192,2.0,4.0,98,0.00,,---,0.48,VWS V14.01,2013-05-10 00:00:00,
2013-05-09 20:05:00,53.4,52.8,29.93,SSW,200,1.0,4.0,98,0.00,,---,0.48,VWS V14.01,2013-05-10 00:05:00,
2013-05-09 20:10:00,53.1,52.5,29.93,South,181,2.0,5.0,98,0.00,,---,0.48,VWS V14.01,2013-05-10 00:10:00,
2013-05-09 20:15:00,52.9,52.3,29.93,South,177,3.0,3.0,98,0.00,,---,0.48,VWS V14.01,2013-05-10 00:15:00,
2013-05-09 20:20:00,52.9,52.3,29.94,South,189,4.0,11.0,98,0.00,,---,0.48,VWS V14.01,2013-05-10 00:20:00,
2013-05-09 20:25:00,52.9,52.3,29.94,South,187,3.0,4.0,98,0.00,,---,0.48,VWS V14.01,2013-05-10 00:25:00,
2013-05-09 20:30:00,52.9,52.3,29.94,SW,224,9.0,9.0,98,0.00,,---,0.48,VWS V14.01,2013-05-10 00:30:00,
2013-05-09 20:35:00,52.9,52.3,29.94,SW,231,4.0,6.0,98,0.00,,---,0.48,VWS V14.01,2013-05-10 00:35:00,
2013-05-09 20:40:00,53.0,52.5,29.93,South,189,3.0,4.0,98,0.00,,---,0.48,VWS V14.01,2013-05-10 00:40:00,
2013-05-09 20:45:00,52.9,52.3,29.93,SSW,205,7.0,7.0,98,0.00,,---,0.48,VWS V14.01,2013-05-10 00:45:00,
2013-05-09 20:50:00,52.8,52.2,29.93,South,170,3.0,3.0,98,0.00,,---,0.48,VWS V14.01,2013-05-10 00:50:00,
2013-05-09 20:55:00,52.7,52.2,29.93,South,180,4.0,6.0,98,0.00,,---,0.48,VWS V14.01,2013-05-10 00:55:00,
2013-05-09 21:00:00,52.7,52.2,29.94,SSW,202,4.0,5.0,98,0.00,,---,0.48,VWS V14.01,2013-05-10 01:00:00,
2013-05-09 21:05:00,52.7,52.2,29.94,SSW,196,3.0,4.0,98,0.00,,---,0.48,VWS V14.01,2013-05-10 01:05:00,
2013-05-09 21:10:00,52.6,52.3,29.94,South,170,6.0,6.0,99,0.00,,---,0.48,VWS V14.01,2013-05-10 01:10:00,
2013-05-09 21:15:00,52.6,52.3,29.94,SSW,196,3.0,5.0,99,0.00,,---,0.48,VWS V14.01,2013-05-10 01:15:00,
2013-05-09 21:20:00,52.5,52.2,29.94,South,189,3.0,5.0,99,0.00,,---,0.48,VWS V14.01,2013-05-10 01:20:00,
2013-05-09 21:25:00,52.6,52.3,29.95,South,177,3.0,5.0,99,0.00,,---,0.48,VWS V14.01,2013-05-10 01:25:00,
2013-05-09 21:30:00,52.7,52.4,29.95,South,185,4.0,4.0,99,0.00,,---,0.48,VWS V14.01,2013-05-10 01:30:00,
2013-05-09 21:35:00,52.6,52.3,29.94,South,191,3.0,4.0,99,0.00,,---,0.48,VWS V14.01,2013-05-10 01:35:00,
2013-05-09 21:40:00,52.5,52.0,29.94,South,181,3.0,4.0,98,0.00,,---,0.48,VWS V14.01,2013-05-10 01:40:00,
2013-05-09 21:45:00,52.4,52.1,29.94,South,183,4.0,4.0,99,0.00,,---,0.48,VWS V14.01,2013-05-10 01:45:00,
2013-05-09 21:50:00,52.4,52.1,29.94,SSW,211,9.0,10.0,99,0.00,,---,0.48,VWS V14.01,2013-05-10 01:50:00,
2013-05-09 21:55:00,52.4,52.1,29.94,SW,215,5.0,6.0,99,0.00,,---,0.48,VWS V14.01,2013-05-10 01:55:00,
2013-05-09 22:00:00,52.5,52.2,29.94,South,185,2.0,3.0,99,0.00,,---,0.48,VWS V14.01,2013-05-10 02:00:00,
2013-05-09 22:05:00,52.6,52.3,29.94,SSW,199,3.0,6.0,99,0.00,,---,0.48,VWS V14.01,2013-05-10 02:05:00,
2013-05-09 22:10:00,52.7,52.4,29.94,SW,216,5.0,5.0,99,0.00,,---,0.48,VWS V14.01,2013-05-10 02:10:00,
2013-05-09 22:15:00,52.7,52.4,29.94,SSW,195,4.0,5.0,99,0.00,,---,0.48,VWS V14.01,2013-05-10 02:15:00,
2013-05-09 22:20:00,52.8,52.5,29.94,SSW,210,3.0,9.0,99,0.00,,---,0.48,VWS V14.01,2013-05-10 02:20:00,
2013-05-09 22:25:00,52.8,52.5,29.94,SSW,206,6.0,6.0,99,0.00,,---,0.48,VWS V14.01,2013-05-10 02:25:00,
2013-05-09 22:30:00,52.8,52.5,29.94,SW,216,6.0,9.0,99,0.00,,---,0.48,VWS V14.01,2013-05-10 02:30:00,
2013-05-09 22:35:00,52.8,52.5,29.93,SW,214,3.0,7.0,99,0.00,,---,0.48,VWS V14.01,2013-05-10 02:35:00,
2013-05-09 22:40:00,52.9,52.6,29.93,SSW,212,5.0,6.0,99,0.00,,---,0.48,VWS V14.01,2013-05-10 02:40:00,
2013-05-09 22:45:00,53.0,52.7,29.93,SSW,203,5.0,7.0,99,0.00,,---,0.48,VWS V14.01,2013-05-10 02:45:00,
2013-05-09 22:50:00,53.1,52.8,29.93,SSW,210,5.0,5.0,99,0.00,,---,0.48,VWS V14.01,2013-05-10 02:50:00,
2013-05-09 22:55:00,53.2,52.9,29.93,SW,229,4.0,4.0,99,0.00,,---,0.48,VWS V14.01,2013-05-10 02:55:00,
2013-05-09 23:00:00,53.3,53.0,29.93,SW,226,9.0,9.0,99,0.00,,---,0.48,VWS V14.01,2013-05-10 03:00:00,
2013-05-09 23:05:00,53.5,53.2,29.93,WSW,238,7.0,7.0,99,0.00,,---,0.48,VWS V14.01,2013-05-10 03:05:00,
2013-05-09 23:10:00,53.6,53.3,29.93,SW,234,4.0,9.0,99,0.00,,---,0.48,VWS V14.01,2013-05-10 03:10:00,
2013-05-09 23:15:00,53.7,53.4,29.92,SW,218,5.0,5.0,99,0.00,,---,0.48,VWS V14.01,2013-05-10 03:15:00,
2013-05-09 23:20:00,53.7,53.4,29.92,SW,235,1.0,3.0,99,0.00,,---,0.48,VWS V14.01,2013-05-10 03:20:00,
2013-05-09 23:25:00,53.8,53.5,29.93,SSW,196,3.0,3.0,99,0.00,,---,0.48,VWS V14.01,2013-05-10 03:25:00,
2013-05-09 23:30:00,53.8,53.5,29.92,SW,229,3.0,3.0,99,0.00,,---,0.48,VWS V14.01,2013-05-10 03:30:00,
2013-05-09 23:35:00,53.8,53.5,29.92,SW,233,8.0,9.0,99,0.00,,---,0.48,VWS V14.01,2013-05-10 03:35:00,
2013-05-09 23:40:00,53.8,53.5,29.92,SW,220,3.0,7.0,99,0.00,,---,0.48,VWS V14.01,2013-05-10 03:40:00,
2013-05-09 23:45:00,53.8,53.5,29.92,SW,235,10.0,10.0,99,0.00,,---,0.48,VWS V14.01,2013-05-10 03:45:00,
2013-05-09 23:50:00,53.9,53.6,29.92,SW,229,4.0,7.0,99,0.00,,---,0.48,VWS V14.01,2013-05-10 03:50:00,
2013-05-09 23:55:00,54.0,53.7,29.92,SW,230,0.0,2.0,99,0.00,,---,0.48,VWS V14.01,2013-05-10 03:55:00,